Powrót do katalogu

FENGYUN 1C DEB

AktywnySSO
NORAD 30202·DEBRIS·🇨🇳 China

Wystrzelony May 10, 1999 z Taiyuan Satellite Launch Center

Loading…

Następne Przeloty (najbliższe 24 godziny)

TLE

ŚwieżeSource: Space-Track

Epoka: Sep 14, 2026, 07:06 UTC

1 30202U 99025VK  26257.29618320  .00005395  00000-0  12016-2 0  9999
2 30202  98.6447   8.7927 0034545 294.0358  65.7226 14.56972584 22937

Śledź FENGYUN 1C DEB w czasie rzeczywistym z AllMySat

Download on the App Store